CAPE
nan nan nan nan nan nan nan nan nan nan nan nan nan nan nan nan nan nan nan nan nan nan nan nan nan nan nan nan nan nan nan nan nan nan nan nan nan nan nan nan nan nan nan nan nan nan 0 0 0 1 2 4 6 6 9 14 14 17 19 20 20 22 25 25 25 29 30 29 30 30 28 24 23 23 22 26 33 33 39 44 44 48 51 58 58 68
nan nan nan nan nan nan nan nan nan nan nan nan nan nan nan nan nan nan nan nan nan nan nan nan nan nan nan nan nan nan nan nan nan nan nan nan nan nan nan nan nan nan nan nan nan 0 1 1 1 2 3 5 7 7 9 14 14 16 16 16 16 19 22 25 25 27 28 28 24 24 20 18 18 18 22 31 40 40 48 51 51 55 61 71 71 89
nan nan nan nan nan nan nan nan nan nan nan nan nan nan nan nan nan nan nan nan nan nan nan nan nan nan nan nan nan nan nan nan nan nan nan nan nan nan nan nan nan nan nan 0 0 1 1 2 2 3 5 5 7 7 8 12 12 13 13 13 13 14 16 20 20 21 22 20 16 16 16 16 17 17 30 42 50 50 54 55 55 62 69 84 84 106
nan nan nan nan nan nan nan nan nan nan nan nan nan nan nan nan nan nan nan nan nan nan nan nan nan nan nan nan nan nan nan nan nan nan nan nan nan nan nan nan nan nan 0 0 0 1 1 2 2 3 5 6 8 8 8 11 11 10 10 9 9 10 12 14 14 16 16 13 12 12 13 17 24 24 38 47 53 53 56 60 60 73 79 101 101 122
nan nan nan nan nan nan nan nan nan nan nan nan nan nan nan nan nan nan nan nan nan nan nan nan nan nan nan nan nan nan nan nan nan nan nan nan nan nan nan nan nan nan 0 0 0 0 1 2 2 3 5 6 9 9 9 9 9 9 8 8 8 9 12 14 14 14 11 12 13 13 17 20 31 31 40 49 58 58 66 76 76 83 92 114 114 153
nan nan nan nan nan nan nan nan nan nan nan nan nan nan nan nan nan nan nan nan nan nan nan nan nan nan nan nan nan nan nan nan nan nan nan nan nan nan nan nan nan nan nan 0 0 0 1 2 2 3 5 7 8 8 8 8 8 6 7 7 7 10 12 11 11 11 11 14 17 17 19 25 33 33 42 49 62 62 76 90 90 95 105 130 130 170
nan nan nan nan nan nan nan nan nan nan nan nan nan nan nan nan nan nan nan nan nan nan nan nan nan nan nan nan nan nan nan nan nan nan nan nan nan nan nan nan nan nan nan nan nan 0 1 2 2 3 5 7 8 8 8 6 6 6 7 8 8 8 9 10 10 10 11 16 22 22 24 29 37 37 42 48 61 61 82 98 98 110 118 130 130 170
nan nan nan nan nan nan nan nan nan nan nan nan nan nan nan nan nan nan nan nan nan nan nan nan nan nan nan nan nan nan nan nan nan nan nan nan nan nan nan nan nan nan nan 0 0 0 2 3 3 5 6 7 7 7 5 5 5 5 5 6 6 7 8 10 10 13 20 24 27 27 35 38 42 42 48 52 61 61 80 105 105 123 136 143 143 164
nan nan nan nan nan nan nan nan nan nan nan nan nan nan nan nan nan nan nan nan nan nan nan nan nan nan nan nan nan nan nan nan nan nan nan nan nan nan nan nan nan nan 0 0 0 1 2 3 3 4 5 6 5 5 4 3 3 4 5 6 6 8 10 13 13 16 22 28 32 32 39 43 48 48 53 54 56 56 68 87 87 112 130 140 140 163
nan nan nan nan nan nan nan nan nan nan nan nan nan nan nan nan nan nan nan nan nan nan nan nan nan nan nan nan nan nan nan nan nan nan nan nan nan nan nan nan nan nan nan 0 0 1 2 2 2 3 4 5 4 4 3 3 3 3 5 7 7 9 12 16 16 20 26 30 37 37 42 44 50 50 54 54 59 59 66 75 75 87 105 123 123 148
nan nan nan nan nan nan nan nan nan nan nan nan nan nan nan nan nan nan nan nan nan nan nan nan nan nan nan nan nan nan nan nan nan nan nan nan nan nan nan nan nan nan nan nan nan 0 0 1 1 2 3 4 3 3 2 2 2 4 7 9 9 13 17 20 20 24 28 33 40 40 42 48 49 49 53 55 59 59 62 68 68 71 83 108 108 132
nan nan nan nan nan nan nan nan nan nan nan nan nan nan nan nan nan nan nan nan nan nan nan nan nan nan nan nan nan nan nan nan nan nan nan nan nan nan nan nan nan nan nan nan nan nan nan 0 0 1 1 2 3 3 2 2 2 5 8 12 12 17 19 24 24 27 33 36 40 40 44 45 49 49 54 54 59 59 58 63 63 69 74 88 88 113
nan nan nan nan nan nan nan nan nan nan nan nan nan nan nan nan nan nan nan nan nan nan nan nan nan nan nan nan nan nan nan nan nan nan nan nan nan nan nan nan nan nan nan nan nan nan nan nan nan 0 1 1 3 3 3 3 3 6 9 14 14 18 24 26 26 30 33 37 39 39 40 44 49 49 51 54 59 59 58 59 59 63 66 80 80 98
nan nan nan nan nan nan nan nan nan nan nan nan nan nan nan nan nan nan nan nan nan 0 2 1 1 nan nan nan nan nan nan nan nan nan nan nan nan nan nan nan nan nan nan nan nan nan nan nan nan nan 1 2 3 3 3 4 4 6 9 15 15 20 26 29 29 31 35 37 39 39 41 43 49 49 53 54 57 57 58 57 57 60 65 75 75 91
1 1 1 0 0 nan nan nan nan nan nan nan nan nan 0 0 0 0 0 3 3 5 6 1 1 nan nan nan nan nan nan nan nan nan nan nan nan nan nan nan nan nan nan nan nan nan nan nan nan nan nan 0 1 1 1 1 1 6 10 16 16 22 27 30 30 31 33 37 39 39 39 41 45 45 51 51 53 53 54 56 56 59 66 74 74 90
5 5 3 1 1 0 nan nan nan nan nan nan nan nan nan 0 2 2 5 7 7 9 6 1 1 nan nan nan nan nan nan nan nan nan nan nan nan nan nan nan nan nan nan nan nan nan nan nan nan nan nan 0 2 2 2 4 4 7 11 16 16 22 25 28 28 30 31 34 37 37 38 40 43 43 45 48 50 50 54 55 55 59 66 79 79 87
8 8 6 3 3 1 nan 0 0 0 1 0 1 1 1 4 7 7 11 10 10 11 7 2 2 0 nan nan nan nan nan nan nan nan nan nan nan nan nan nan nan nan nan nan nan nan nan nan nan nan nan 1 3 3 3 4 4 7 12 16 16 20 24 26 26 26 27 27 31 31 33 36 36 36 39 43 46 46 51 56 56 65 76 82 82 90
9 9 7 5 5 1 0 1 1 1 4 3 3 3 5 8 12 12 12 12 12 9 5 3 3 1 nan nan nan nan nan nan nan nan nan nan nan nan nan nan nan nan nan nan nan nan nan nan nan nan nan 3 4 4 4 5 5 7 10 14 14 18 21 24 24 24 25 26 25 25 27 26 28 28 31 36 41 41 49 60 60 67 74 87 87 91
5 5 5 3 3 1 1 2 4 4 5 6 9 9 12 12 12 12 10 12 12 8 5 3 3 1 nan nan nan nan nan nan nan nan nan nan nan nan nan nan nan nan nan nan nan nan nan nan nan 1 1 4 5 5 4 4 4 5 7 11 11 15 19 22 22 24 24 23 19 19 17 17 18 18 18 26 37 37 46 58 58 66 80 91 91 100
3 4 3 1 1 2 2 4 7 7 10 13 18 18 14 11 11 11 9 11 11 5 3 2 2 1 nan nan nan nan nan 0 0 0 0 nan nan nan nan nan nan nan nan nan nan nan nan nan nan 0 0 2 3 3 2 2 2 3 5 8 8 12 17 20 20 21 20 18 14 14 12 11 12 12 15 23 34 34 45 58 58 72 83 93 93 97
3 3 1 1 1 3 5 8 11 11 20 23 16 16 12 10 8 8 7 5 5 5 4 2 2 1 0 nan nan nan nan 0 1 1 1 nan nan nan nan nan nan nan nan nan nan nan nan nan nan nan nan 1 2 2 1 1 1 1 4 7 7 10 14 16 16 16 15 13 10 10 8 9 12 12 14 23 35 35 51 66 66 76 87 97 97 105
3 2 1 6 6 10 15 13 16 16 28 28 14 14 9 7 7 7 5 4 4 4 4 3 3 1 1 0 nan nan 0 3 1 1 1 nan nan nan nan nan nan nan nan nan nan nan nan nan nan nan nan 1 1 1 1 0 0 1 3 5 5 8 10 10 10 10 10 9 8 8 8 9 12 12 17 27 36 36 53 65 65 75 85 91 91 104
5 5 10 18 18 16 16 13 13 13 16 17 12 12 8 5 5 5 6 4 4 4 5 4 4 4 3 1 0 0 1 2 2 2 0 nan nan nan nan nan nan nan nan nan nan nan nan nan nan nan nan 1 0 0 0 0 0 0 1 2 2 3 4 5 5 5 6 6 6 6 7 8 12 12 18 25 41 41 56 63 63 74 80 89 89 98
18 23 14 15 15 16 12 8 7 7 9 8 6 6 10 7 5 5 5 5 5 7 6 5 5 3 2 1 0 0 0 1 2 2 0 nan nan nan nan nan nan nan nan nan nan nan nan nan nan nan nan 0 0 0 0 nan nan nan nan 0 0 0 1 2 2 2 3 4 5 5 5 6 12 12 21 31 41 41 57 65 65 67 78 83 83 97
26 21 10 9 9 14 9 5 6 6 5 5 5 5 9 9 8 8 6 8 8 7 4 5 5 2 1 0 nan nan nan nan 0 0 nan nan nan nan nan nan nan nan nan nan nan nan nan nan nan nan nan nan nan nan nan nan nan nan nan nan nan nan 0 0 0 1 1 2 3 3 4 5 10 10 22 33 45 45 57 60 60 63 69 73 73 87
18 13 7 6 6 9 10 10 11 11 11 6 5 5 5 6 6 6 5 4 4 3 4 3 3 1 0 nan nan nan nan nan nan nan nan nan nan nan nan nan nan nan nan nan nan nan nan nan nan nan nan nan nan nan nan nan nan nan nan nan nan nan nan nan nan 0 0 1 2 2 3 5 12 12 21 31 50 50 51 56 56 66 67 76 76 76
10 8 6 5 5 7 9 10 13 13 17 17 9 9 7 7 5 5 4 3 3 3 2 2 2 1 0 nan nan nan nan nan nan nan nan nan nan nan nan nan nan nan nan nan nan nan nan nan nan nan nan nan nan nan nan nan nan nan nan nan nan nan nan nan nan nan 0 1 1 1 3 5 8 8 18 30 44 44 51 58 58 69 71 70 70 72
10 9 8 6 6 5 4 6 10 10 12 14 16 16 12 6 2 2 3 1 1 3 3 2 2 1 0 nan nan nan nan nan nan nan nan nan nan nan nan nan nan nan nan nan nan nan nan nan nan nan nan nan nan nan nan nan nan nan nan nan nan nan nan nan nan nan 0 0 1 1 3 5 10 10 16 25 33 33 46 60 60 68 76 53 53 29
8 6 5 3 3 2 2 4 6 6 6 7 12 12 10 4 2 2 1 1 1 2 2 2 2 2 1 nan nan nan nan nan nan nan nan nan nan nan nan nan nan nan nan nan nan nan nan nan nan nan nan nan nan nan nan nan nan nan nan 0 0 0 0 0 0 1 2 5 6 6 9 13 17 17 21 27 33 33 43 58 58 74 61 42 42 26
5 4 2 1 1 0 0 0 1 1 2 4 7 7 7 2 1 1 1 1 1 1 2 2 2 1 1 nan nan nan nan nan nan nan nan nan nan nan nan nan nan nan 0 0 0 nan nan nan nan nan nan nan nan nan nan nan nan nan nan 0 0 0 1 2 2 5 8 12 17 17 18 23 26 26 29 33 36 36 46 61 61 63 35 29 29 36
1 0 nan nan nan nan nan nan nan nan 0 1 2 2 3 1 0 0 0 1 1 1 2 2 2 1 0 0 nan nan nan nan nan nan nan nan nan nan nan 0 0 2 2 1 1 nan nan nan nan nan nan nan nan nan nan nan nan nan nan nan nan nan 0 1 1 5 10 16 21 21 25 29 31 31 37 40 43 43 50 64 64 62 35 30 30 32
nan nan nan nan nan nan nan nan nan nan nan nan nan nan nan nan 0 0 0 1 1 1 1 1 1 1 1 1 0 0 nan nan nan nan 2 1 1 1 3 1 1 4 3 5 5 1 nan nan nan nan nan nan nan nan nan nan nan nan nan nan nan nan 0 4 4 5 6 14 24 24 29 35 42 42 47 50 59 59 67 70 70 69 46 38 38 44
nan nan nan nan nan nan nan nan nan nan nan nan nan nan nan nan 0 0 0 1 1 1 2 2 2 2 1 1 1 1 0 nan 1 1 5 1 2 2 3 2 2 2 4 3 3 2 0 0 0 nan nan nan nan nan nan nan nan nan nan nan nan nan 0 2 2 2 6 10 18 18 28 34 41 41 49 58 65 65 72 73 73 72 69 38 38 47
nan nan nan nan nan nan nan nan 0 0 0 0 nan nan nan 0 0 0 1 1 1 2 2 2 2 1 1 1 1 1 nan nan 1 1 5 2 1 1 4 3 3 4 3 1 1 1 2 1 1 1 nan nan nan nan nan nan nan nan nan nan nan nan nan 0 0 2 4 8 8 8 17 21 41 41 46 57 64 64 70 71 71 77 80 59 59 54
nan nan nan nan nan 0 1 2 2 2 0 0 0 0 1 1 1 1 2 2 2 2 2 1 1 1 1 1 1 1 0 nan 1 1 5 3 1 1 2 2 2 2 2 1 1 2 0 1 1 3 1 nan nan nan nan nan nan nan nan nan nan nan nan 0 0 3 7 8 9 9 10 13 21 21 33 48 65 65 73 76 76 81 79 82 82 72
nan 0 0 1 1 1 1 0 0 0 0 0 1 1 1 2 2 2 2 3 3 4 3 2 2 2 1 1 0 0 0 nan 2 2 6 3 1 1 1 4 4 4 1 2 2 2 0 1 1 3 4 0 nan nan nan nan nan nan nan nan nan nan 0 2 2 4 5 8 11 11 12 15 20 20 26 59 71 71 78 76 76 76 74 79 79 79
1 1 0 0 0 0 0 0 0 0 0 0 1 1 2 3 5 5 5 10 10 9 6 8 8 6 6 1 1 1 2 1 4 4 6 5 2 2 1 4 4 6 2 1 1 2 1 1 1 1 1 0 nan nan nan nan nan nan nan nan nan nan 0 1 1 5 4 11 13 13 16 16 23 23 36 60 62 62 68 70 70 66 70 69 69 71
0 0 0 0 0 0 0 0 0 0 0 0 2 2 3 5 10 10 8 10 10 14 8 6 6 6 17 13 13 13 8 7 5 5 10 8 2 2 1 3 3 5 3 2 2 2 1 1 1 0 0 nan 0 0 0 nan nan nan nan nan nan 0 0 2 2 4 3 8 16 16 22 22 22 22 29 38 29 29 25 28 28 46 60 59 59 60
0 0 0 0 0 0 0 nan nan nan 0 1 2 2 3 6 8 8 6 5 5 6 8 7 7 5 6 9 17 17 12 5 2 2 11 9 5 5 3 3 3 4 4 3 3 2 nan 0 0 1 0 0 0 0 0 0 0 0 0 0 0 0 1 2 2 5 6 7 17 17 21 26 30 30 23 26 29 29 22 16 16 30 36 35 35 47
1 1 0 0 0 0 nan nan nan nan 0 2 4 4 5 5 5 5 3 4 4 5 8 8 8 5 6 8 9 9 9 5 7 7 6 6 6 6 2 1 1 2 3 2 2 2 3 0 0 3 3 0 0 0 0 0 0 0 3 1 1 0 1 2 2 5 4 6 11 11 15 19 22 22 22 21 17 17 17 15 15 23 33 29 29 22
1 1 0 0 0 0 0 0 1 1 2 4 6 6 5 5 4 4 5 5 5 6 6 7 7 8 9 6 4 4 4 4 5 5 5 1 3 3 2 1 1 1 1 1 1 2 4 2 2 3 2 0 1 1 1 1 1 4 7 1 1 1 2 5 5 3 2 4 8 8 17 16 22 22 20 19 13 13 13 11 11 23 30 25 25 16
3 2 0 0 0 0 0 1 4 4 6 6 7 7 5 6 6 6 7 7 7 5 5 7 7 10 7 5 4 4 2 3 3 3 4 1 2 2 3 3 3 2 1 3 3 5 3 2 2 1 1 nan nan nan 0 1 1 3 4 2 2 2 6 7 7 2 2 3 5 5 20 12 15 15 19 13 9 9 18 18 18 33 32 16 16 12
2 1 1 2 2 1 2 5 6 6 7 5 5 5 4 5 8 8 10 8 8 8 9 10 10 10 9 7 5 5 4 5 7 7 8 6 7 7 8 8 8 4 1 1 1 5 6 6 6 1 1 0 0 0 0 2 2 2 2 4 4 3 1 2 2 4 3 6 7 7 7 9 9 9 12 16 13 13 16 24 24 33 27 13 13 9
2 2 3 3 3 4 6 6 5 5 5 7 6 6 6 7 10 10 12 12 12 11 10 10 10 10 9 8 6 6 4 4 8 8 9 10 11 11 12 14 14 8 4 nan nan 1 3 5 5 3 1 0 0 0 0 1 1 1 1 3 3 2 0 2 2 7 9 9 7 7 7 12 8 8 10 11 6 6 13 11 11 8 14 9 9 6
3 4 5 4 4 5 6 5 4 4 4 5 5 5 6 8 12 12 12 12 12 15 10 10 10 10 8 6 6 6 4 3 3 3 6 8 10 10 10 14 14 12 7 4 4 2 2 2 2 2 1 0 0 0 0 0 0 1 4 5 5 5 5 5 5 6 10 9 8 8 10 13 10 10 9 8 7 7 9 7 7 6 7 5 5 4
6 6 5 5 5 5 6 5 4 4 5 5 5 5 6 7 9 9 14 13 13 12 12 9 9 10 8 7 6 6 5 4 2 2 2 5 7 7 9 8 8 8 5 5 5 3 1 0 0 2 2 1 2 2 1 1 1 0 3 5 5 4 5 7 7 7 10 9 10 10 14 17 9 9 5 5 5 5 3 5 5 2 3 3 3 3
6 7 6 5 5 5 5 5 4 4 5 7 6 6 7 8 6 6 9 13 13 13 14 12 12 10 7 8 5 5 5 4 4 4 3 2 4 4 4 4 4 5 2 2 2 1 0 nan nan nan 0 0 1 1 1 1 1 1 2 3 3 3 4 5 5 5 7 8 7 7 10 14 7 7 5 5 5 5 4 3 3 3 3 3 3 3
7 7 6 6 6 6 5 5 5 5 6 7 6 6 7 6 8 8 11 13 13 14 15 10 10 8 5 5 4 4 5 5 4 4 3 3 4 4 4 1 1 3 2 2 2 5 3 1 1 2 0 0 0 0 1 1 1 1 1 1 1 3 5 7 7 4 4 5 9 9 12 9 5 5 6 7 6 6 4 3 3 2 2 1 1 2
6 6 6 6 6 6 5 5 5 5 5 6 6 6 9 12 21 21 11 13 13 11 11 13 13 14 9 6 6 6 5 4 4 4 4 3 3 3 3 2 2 2 1 3 3 4 3 5 5 5 0 0 0 0 2 2 2 2 3 2 2 2 5 6 6 5 3 4 7 7 13 10 5 5 5 6 6 6 5 3 3 2 3 2 2 3
6 6 7 7 7 6 5 7 6 6 5 7 6 6 9 11 9 9 14 15 15 15 16 13 13 14 11 7 7 7 5 5 5 5 4 4 4 4 4 3 3 3 3 3 3 2 2 5 5 8 12 4 1 1 2 3 3 4 4 2 2 1 2 3 3 4 3 2 4 4 15 12 9 9 7 5 5 5 5 3 3 1 2 2 2 3
7 6 6 6 6 5 5 5 6 6 5 8 9 9 11 9 10 10 14 16 16 16 16 15 15 15 12 9 9 9 9 8 6 6 5 4 2 2 4 3 3 2 2 2 2 1 1 1 1 2 5 13 6 6 0 5 5 6 9 6 6 2 2 2 2 3 4 2 4 4 8 6 6 6 4 2 5 5 6 2 2 1 1 1 1 2
CIN
nan nan nan nan nan nan nan nan nan nan nan nan nan nan nan nan nan nan nan nan nan nan nan nan nan nan nan nan nan nan nan nan nan nan nan nan nan nan nan nan nan nan nan nan nan nan -0 -0 -0 -0 -0 -0 -0 -0 -0 -0 -0 -0 -0 -0 -0 -0 -0 -0 -0 -0 -0 -0 -0 -0 -0 -0 -0 -0 -0 -0 -0 -0 -0 -0 -0 -0 -0 -0 -0 -0
nan nan nan nan nan nan nan nan nan nan nan nan nan nan nan nan nan nan nan nan nan nan nan nan nan nan nan nan nan nan nan nan nan nan nan nan nan nan nan nan nan nan nan nan nan -0 -0 -0 -0 -0 -0 -0 -0 -0 -0 -0 -0 -0 -0 -0 -0 -0 -0 -0 -0 -0 -0 -0 -0 -0 -0 -0 -0 -0 -0 -0 -0 -0 -0 -0 -0 -0 -0 -0 -0 -0
nan nan nan nan nan nan nan nan nan nan nan nan nan nan nan nan nan nan nan nan nan nan nan nan nan nan nan nan nan nan nan nan nan nan nan nan nan nan nan nan nan nan nan -0 -0 -0 -0 -0 -0 -0 -0 -0 -0 -0 -0 -0 -0 -0 -0 -0 -0 -0 -0 -0 -0 -0 -0 -0 -0 -0 -0 -0 -0 -0 -0 -0 -0 -0 -0 -0 -0 -0 -0 -0 -0 -0
nan nan nan nan nan nan nan nan nan nan nan nan nan nan nan nan nan nan nan nan nan nan nan nan nan nan nan nan nan nan nan nan nan nan nan nan nan nan nan nan nan nan -0 -0 -0 -0 -0 -0 -0 -0 -0 -0 -0 -0 -0 -0 -0 -0 -0 -0 -0 -0 -0 -0 -0 -0 -0 -0 -0 -0 -0 -0 -0 -0 -0 -0 -0 -0 -0 -0 -0 -0 -0 -0 -0 -0
nan nan nan nan nan nan nan nan nan nan nan nan nan nan nan nan nan nan nan nan nan nan nan nan nan nan nan nan nan nan nan nan nan nan nan nan nan nan nan nan nan nan -0 -0 -0 -0 -0 -0 -0 -0 -0 -0 -0 -0 -0 -0 -0 -0 -0 -0 -0 -0 -0 -0 -0 -0 -0 -0 -0 -0 -0 -0 -0 -0 -0 -0 -0 -0 -0 -0 -0 -0 -0 -0 -0 -0
nan nan nan nan nan nan nan nan nan nan nan nan nan nan nan nan nan nan nan nan nan nan nan nan nan nan nan nan nan nan nan nan nan nan nan nan nan nan nan nan nan nan nan -0 -0 -0 -0 -0 -0 -0 -0 -0 -0 -0 -0 -0 -0 -0 -0 -0 -0 -0 -0 -0 -0 -0 -0 -0 -0 -0 -0 -0 -0 -0 -0 -0 -0 -0 -0 -0 -0 -0 -0 -0 -0 -0
nan nan nan nan nan nan nan nan nan nan nan nan nan nan nan nan nan nan nan nan nan nan nan nan nan nan nan nan nan nan nan nan nan nan nan nan nan nan nan nan nan nan nan nan nan -0 -0 -0 -0 -0 -0 -0 -0 -0 -0 -0 -0 -0 -0 -0 -0 -0 -0 -0 -0 -0 -0 -0 -0 -0 -0 -0 -0 -0 -0 -0 -0 -0 -0 -0 -0 -0 -0 -0 -0 -0
nan nan nan nan nan nan nan nan nan nan nan nan nan nan nan nan nan nan nan nan nan nan nan nan nan nan nan nan nan nan nan nan nan nan nan nan nan nan nan nan nan nan nan -0 -0 -0 -0 -0 -0 -0 -0 -0 -0 -0 -0 -0 -0 -0 -0 -0 -0 -0 -0 -0 -0 -0 -0 -0 -0 -0 -0 -0 -0 -0 -0 -0 -0 -0 -0 -0 -0 -0 -0 -0 -0 -0
nan nan nan nan nan nan nan nan nan nan nan nan nan nan nan nan nan nan nan nan nan nan nan nan nan nan nan nan nan nan nan nan nan nan nan nan nan nan nan nan nan nan -0 -0 -0 -0 -0 -0 -0 -0 -0 -0 -0 -0 -0 -0 -0 -0 -0 -0 -0 -0 -0 -0 -0 -0 -0 -0 -0 -0 -0 -0 -0 -0 -0 -0 -0 -0 -0 -0 -0 -0 -0 -0 -0 -0
nan nan nan nan nan nan nan nan nan nan nan nan nan nan nan nan nan nan nan nan nan nan nan nan nan nan nan nan nan nan nan nan nan nan nan nan nan nan nan nan nan nan nan -0 -0 -0 -0 -0 -0 -0 -0 -0 -0 -0 -0 -0 -0 -0 -0 -0 -0 -0 -0 -0 -0 -0 -0 -0 -0 -0 -0 -0 -0 -0 -0 -0 -0 -0 -0 -0 -0 -0 -0 -0 -0 -0
nan nan nan nan nan nan nan nan nan nan nan nan nan nan nan nan nan nan nan nan nan nan nan nan nan nan nan nan nan nan nan nan nan nan nan nan nan nan nan nan nan nan nan nan nan -0 -0 -0 -0 -0 -0 -0 -0 -0 -0 -0 -0 -0 -0 -0 -0 -0 -0 -0 -0 -0 -0 -0 -0 -0 -0 -0 -0 -0 -0 -0 -0 -0 -0 -0 -0 -0 -0 -0 -0 -0
nan nan nan nan nan nan nan nan nan nan nan nan nan nan nan nan nan nan nan nan nan nan nan nan nan nan nan nan nan nan nan nan nan nan nan nan nan nan nan nan nan nan nan nan nan nan nan -0 -0 -0 -0 -0 -0 -0 -0 -0 -0 -0 -0 -0 -0 -0 -0 -0 -0 -0 -0 -0 -0 -0 -0 -0 -0 -0 -0 -0 -0 -0 -0 -0 -0 -0 -0 -0 -0 -0
nan nan nan nan nan nan nan nan nan nan nan nan nan nan nan nan nan nan nan nan nan nan nan nan nan nan nan nan nan nan nan nan nan nan nan nan nan nan nan nan nan nan nan nan nan nan nan nan nan -0 -0 -0 -0 -0 -0 -0 -0 -0 -0 -0 -0 -0 -0 -0 -0 -0 -0 -0 -0 -0 -0 -0 -0 -0 -0 -0 -0 -0 -0 -0 -0 -0 -0 -0 -0 -0
nan nan nan nan nan nan nan nan nan nan nan nan nan nan nan nan nan nan nan nan nan -0 -0 -0 -0 nan nan nan nan nan nan nan nan nan nan nan nan nan nan nan nan nan nan nan nan nan nan nan nan nan -0 -0 -0 -0 -0 -0 -0 -0 -0 -0 -0 -0 -0 -0 -0 -0 -0 -0 -0 -0 -0 -0 -0 -0 -0 -0 -0 -0 -0 -0 -0 -0 -0 -0 -0 -0
-0 -0 -0 -0 -0 nan nan nan nan nan nan nan nan nan -0 -0 -0 -0 -0 -0 -0 -0 -0 -0 -0 nan nan nan nan nan nan nan nan nan nan nan nan nan nan nan nan nan nan nan nan nan nan nan nan nan nan -0 -0 -0 -0 -0 -0 -0 -0 -0 -0 -0 -0 -0 -0 -0 -0 -0 -0 -0 -0 -0 -0 -0 -0 -0 -0 -0 -0 -0 -0 -0 -0 -0 -0 -0
-0 -0 -0 -0 -0 -0 nan nan nan nan nan nan nan nan nan -0 -0 -0 -0 -0 -0 -0 -0 -0 -0 nan nan nan nan nan nan nan nan nan nan nan nan nan nan nan nan nan nan nan nan nan nan nan nan nan nan -0 -0 -0 -0 -0 -0 -0 -0 -0 -0 -0 -0 -0 -0 -0 -0 -0 -0 -0 -0 -0 -0 -0 -0 -0 -0 -0 -0 -0 -0 -0 -0 -0 -0 -0
-0 -0 -0 -0 -0 -0 nan -0 -0 -0 -0 -0 -0 -0 -0 -0 -0 -0 -0 -0 -0 -0 -0 -0 -0 -0 nan nan nan nan nan nan nan nan nan nan nan nan nan nan nan nan nan nan nan nan nan nan nan nan nan -0 -0 -0 -0 -0 -0 -0 -0 -0 -0 -0 -0 -0 -0 -0 -0 -0 -0 -0 -0 -0 -0 -0 -0 -0 -0 -0 -0 -0 -0 -0 -0 -0 -0 -0
-0 -0 -0 -0 -0 -0 -0 -0 -0 -0 -0 -0 -0 -0 -0 -0 -0 -0 -0 -0 -0 -0 -0 -0 -0 -0 nan nan nan nan nan nan nan nan nan nan nan nan nan nan nan nan nan nan nan nan nan nan nan nan nan -0 -0 -0 -0 -0 -0 -0 -0 -0 -0 -0 -0 -0 -0 -0 -0 -0 -0 -0 -0 -0 -0 -0 -0 -0 -0 -0 -0 -0 -0 -0 -0 -0 -0 -0
-0 -0 -0 -0 -0 -0 -0 -0 -0 -0 -0 -0 -0 -0 -0 -0 -0 -0 -0 -0 -0 -0 -0 -0 -0 -0 nan nan nan nan nan nan nan nan nan nan nan nan nan nan nan nan nan nan nan nan nan nan nan -0 -0 -0 -0 -0 -0 -0 -0 -0 -0 -0 -0 -0 -0 -0 -0 -0 -0 -0 -0 -0 -0 -0 -0 -0 -0 -0 -0 -0 -0 -0 -0 -0 -0 -0 -0 -0
-0 -0 -0 -0 -0 -0 -0 -0 -0 -0 -0 -0 -0 -0 -0 -0 -0 -0 -0 -0 -0 -0 -0 -0 -0 -0 nan nan nan nan nan -0 -0 -0 -0 nan nan nan nan nan nan nan nan nan nan nan nan nan nan -0 -0 -0 -0 -0 -0 -0 -0 -0 -0 -0 -0 -0 -0 -0 -0 -0 -0 -0 -0 -0 -0 -0 -0 -0 -0 -0 -0 -0 -0 -0 -0 -0 -0 -0 -0 -0
-0 -0 -0 -0 -0 -0 -0 -0 -0 -0 -0 -0 -0 -0 -0 -0 -0 -0 -0 -0 -0 -0 -0 -0 -0 -0 -0 nan nan nan nan -0 -0 -0 -0 nan nan nan nan nan nan nan nan nan nan nan nan nan nan nan nan -0 -0 -0 -0 -0 -0 -0 -0 -0 -0 -0 -0 -0 -0 -0 -0 -0 -0 -0 -0 -0 -0 -0 -0 -0 -0 -0 -0 -0 -0 -0 -0 -0 -0 -0
-0 -0 -0 -0 -0 -0 -0 -0 -0 -0 -0 -0 -0 -0 -0 -0 -0 -0 -0 -0 -0 -0 -0 -0 -0 -0 -0 -0 nan nan -0 -0 -0 -0 -0 nan nan nan nan nan nan nan nan nan nan nan nan nan nan nan nan -0 -0 -0 -0 -0 -0 -0 -0 -0 -0 -0 -0 -0 -0 -0 -0 -0 -0 -0 -0 -0 -0 -0 -0 -0 -0 -0 -0 -0 -0 -0 -0 -0 -0 -0
-0 -0 -0 -0 -0 -0 -0 -0 -0 -0 -0 -0 -0 -0 -0 -0 -0 -0 -0 -0 -0 -0 -0 -0 -0 -0 -0 -0 -0 -0 -0 -0 -0 -0 -0 nan nan nan nan nan nan nan nan nan nan nan nan nan nan nan nan -0 -0 -0 -0 -0 -0 -0 -0 -0 -0 -0 -0 -0 -0 -0 -0 -0 -0 -0 -0 -0 -0 -0 -0 -0 -0 -0 -0 -0 -0 -0 -0 -0 -0 -0
-0 -0 -0 -0 -0 -0 -0 -0 -0 -0 -0 -0 -0 -0 -0 -0 -0 -0 -0 -0 -0 -0 -0 -0 -0 -0 -0 -0 -0 -0 -0 -0 -0 -0 -0 nan nan nan nan nan nan nan nan nan nan nan nan nan nan nan nan -0 -0 -0 -0 nan nan nan nan -0 -0 -0 -0 -0 -0 -0 -0 -0 -0 -0 -0 -0 -0 -0 -0 -0 -0 -0 -0 -0 -0 -0 -0 -0 -0 -0
-0 -0 -0 -0 -0 -0 -0 -0 -0 -0 -0 -0 -0 -0 -0 -0 -0 -0 -0 -0 -0 -0 -0 -0 -0 -0 -0 -0 nan nan nan nan -0 -0 nan nan nan nan nan nan nan nan nan nan nan nan nan nan nan nan nan nan nan nan nan nan nan nan nan nan nan nan -0 -0 -0 -0 -0 -0 -0 -0 -0 -0 -0 -0 -0 -0 -0 -0 -0 -0 -0 -0 -0 -0 -0 -0
-0 -0 -0 -0 -0 -0 -0 -0 -0 -0 -0 -0 -0 -0 -0 -0 -0 -0 -0 -0 -0 -0 -0 -0 -0 -0 -0 nan nan nan nan nan nan nan nan nan nan nan nan nan nan nan nan nan nan nan nan nan nan nan nan nan nan nan nan nan nan nan nan nan nan nan nan nan nan -0 -0 -0 -0 -0 -0 -0 -0 -0 -0 -0 -0 -0 -0 -0 -0 -0 -0 -0 -0 -0
-0 -0 -0 -0 -0 -0 -0 -0 -0 -0 -0 -0 -0 -0 -0 -0 -0 -0 -0 -0 -0 -0 -0 -0 -0 -0 -0 nan nan nan nan nan nan nan nan nan nan nan nan nan nan nan nan nan nan nan nan nan nan nan nan nan nan nan nan nan nan nan nan nan nan nan nan nan nan nan -0 -0 -0 -0 -0 -0 -0 -0 -0 -0 -0 -0 -0 -0 -0 -0 -0 -0 -0 -0
-0 -0 -0 -0 -0 -0 -0 -0 -0 -0 -0 -0 -0 -0 -0 -0 -0 -0 -0 -0 -0 -0 -0 -0 -0 -0 -0 nan nan nan nan nan nan nan nan nan nan nan nan nan nan nan nan nan nan nan nan nan nan nan nan nan nan nan nan nan nan nan nan nan nan nan nan nan nan nan -0 -0 -0 -0 -0 -0 -0 -0 -0 -0 -0 -0 -0 -0 -0 -0 -0 -0 -0 -0
-0 -0 -0 -0 -0 -0 -0 -0 -0 -0 -0 -0 -0 -0 -0 -0 -0 -0 -0 -0 -0 -0 -0 -0 -0 -0 -0 nan nan nan nan nan nan nan nan nan nan nan nan nan nan nan nan nan nan nan nan nan nan nan nan nan nan nan nan nan nan nan nan -0 -0 -0 -0 -0 -0 -0 -0 -0 -0 -0 -0 -0 -0 -0 -0 -0 -0 -0 -0 -0 -0 -0 -0 -0 -0 -0
-0 -0 -0 -0 -0 -0 -0 -0 -0 -0 -0 -0 -0 -0 -0 -0 -0 -0 -0 -0 -0 -0 -0 -0 -0 -0 -0 nan nan nan nan nan nan nan nan nan nan nan nan nan nan nan -0 -0 -0 nan nan nan nan nan nan nan nan nan nan nan nan nan nan -0 -0 -0 -0 -0 -0 -0 -0 -0 -0 -0 -0 -0 -0 -0 -0 -0 -0 -0 -0 -0 -0 -0 -0 -0 -0 -0
-0 -0 nan nan nan nan nan nan nan nan -0 -0 -0 -0 -0 -0 -0 -0 -0 -0 -0 -0 -0 -0 -0 -0 -0 -0 nan nan nan nan nan nan nan nan nan nan nan -0 -0 -0 -0 -0 -0 nan nan nan nan nan nan nan nan nan nan nan nan nan nan nan nan nan -0 -0 -0 -0 -0 -0 -0 -0 -0 -0 -0 -0 -0 -0 -0 -0 -0 -0 -0 -0 -0 -3 -3 -3
nan nan nan nan nan nan nan nan nan nan nan nan nan nan nan nan -0 -0 -0 -0 -0 -0 -0 -0 -0 -0 -0 -0 -0 -0 nan nan nan nan -0 -0 -0 -0 -0 -0 -0 -0 -0 -0 -0 -0 nan nan nan nan nan nan nan nan nan nan nan nan nan nan nan nan -0 -0 -0 -0 -0 -0 -0 -0 -0 -0 -0 -0 -0 -0 -0 -0 -0 -0 -0 -0 -0 -4 -4 -2
nan nan nan nan nan nan nan nan nan nan nan nan nan nan nan nan -0 -0 -0 -0 -0 -0 -0 -0 -0 -0 -0 -0 -0 -0 -0 nan -0 -0 -0 -0 -0 -0 -0 -0 -0 -0 -0 -0 -0 -0 -0 -0 -0 nan nan nan nan nan nan nan nan nan nan nan nan nan -0 -0 -0 -0 -0 -0 -0 -0 -0 -0 -0 -0 -0 -0 -0 -0 -0 -0 -0 -0 -0 -4 -4 -2
nan nan nan nan nan nan nan nan -0 -0 -0 -0 nan nan nan -0 -0 -0 -0 -0 -0 -0 -0 -0 -0 -0 -0 -0 -0 -0 nan nan -0 -0 -0 -0 -0 -0 -0 -0 -0 -0 -0 -0 -0 -0 -0 -0 -0 -0 nan nan nan nan nan nan nan nan nan nan nan nan nan -0 -0 -0 -0 -0 -0 -0 -0 -0 -0 -0 -0 -0 -0 -0 -0 -0 -0 -0 -0 -0 -0 -2
nan nan nan nan nan -0 -0 -0 -0 -0 -0 -0 -0 -0 -0 -0 -0 -0 -0 -0 -0 -0 -0 -0 -0 -0 -0 -0 -0 -0 -0 nan -0 -0 -0 -0 -0 -0 -0 -0 -0 -0 -0 -0 -0 -0 -0 -0 -0 -0 -0 nan nan nan nan nan nan nan nan nan nan nan nan -0 -0 -0 -0 -0 -0 -0 -0 -0 -0 -0 -0 -0 -0 -0 -0 -0 -0 -0 -0 -0 -0 -0
nan -0 -0 -0 -0 -0 -0 -0 -0 -0 -0 -0 -0 -0 -0 -0 -0 -0 -0 -0 -0 -0 -0 -0 -0 -0 -0 -0 -0 -0 -0 nan -0 -0 -0 -0 -0 -0 -0 -0 -0 -0 -0 -0 -0 -0 -0 -0 -0 -0 -0 -0 nan nan nan nan nan nan nan nan nan nan -0 -0 -0 -0 -0 -0 -0 -0 -0 -0 -0 -0 -0 -0 -0 -0 -0 -0 -0 -0 -0 -0 -0 -0
-0 -0 -0 -0 -0 -0 -0 -0 -0 -0 -0 -0 -0 -0 -0 -0 -0 -0 -0 -0 -0 -0 -0 -0 -0 -0 -0 -0 -0 -0 -0 -0 -0 -0 -0 -0 -0 -0 -0 -0 -0 -0 -0 -0 -0 -0 -0 -0 -0 -0 -0 -0 nan nan nan nan nan nan nan nan nan nan -0 -0 -0 -0 -0 -0 -0 -0 -0 -0 -0 -0 -0 -0 -0 -0 -0 -0 -0 -0 -0 -0 -0 -0
-0 -0 -0 -0 -0 -0 -0 -0 -0 -0 -0 -0 -0 -0 -0 -0 -0 -0 -0 -0 -0 -0 -0 -0 -0 -0 -0 -0 -0 -0 -0 -0 -0 -0 -0 -0 -0 -0 -0 -0 -0 -0 -0 -0 -0 -0 -0 -0 -0 -0 -0 nan -0 -0 -0 nan nan nan nan nan nan -0 -0 -0 -0 -0 -4 -0 -0 -0 -0 -0 -1 -1 -0 -0 -1 -1 -0 -0 -0 -0 -0 -0 -0 -0
-0 -0 -0 -0 -0 -0 -0 nan nan nan -0 -0 -0 -0 -0 -0 -0 -0 -0 -0 -0 -0 -0 -0 -0 -0 -2 -3 -0 -0 -0 -3 -6 -6 -2 -1 -0 -0 -0 -0 -0 -0 -0 -0 -0 -0 nan -0 -0 -0 -0 -0 -0 -0 -0 -0 -0 -0 -0 -0 -0 -0 -0 -0 -0 -0 -0 -0 -0 -0 -0 -0 -0 -0 -3 -3 -0 -0 -3 -3 -3 -0 -0 -0 -0 -0
-0 -0 -0 -0 -0 -0 nan nan nan nan -0 -0 -0 -0 -0 -0 -0 -0 -0 -0 -0 -0 -0 -0 -0 -0 -0 -0 -0 -0 -0 -7 -1 -1 -2 -3 -1 -1 -0 -0 -0 -0 -0 -0 -0 -0 -0 -0 -0 -0 -0 -0 -0 -0 -0 -0 -0 -0 -0 -0 -0 -0 -0 -0 -0 -0 -0 -0 -1 -1 -1 -2 -1 -1 -2 -3 -4 -4 -4 -5 -5 -2 -0 -0 -0 -1
-0 -0 -0 -0 -0 -0 -0 -0 -0 -0 -0 -0 -0 -0 -0 -0 -0 -0 -0 -0 -0 -0 -0 -0 -0 -0 -0 -0 -0 -0 -0 -5 -0 -0 -5 -7 -1 -1 -0 -0 -0 -0 -0 -0 -0 -0 -0 -0 -0 -0 -0 -0 -0 -0 -0 -0 -0 -0 -0 -0 -0 -0 -0 -0 -0 -2 -1 -4 -4 -4 -0 -0 -0 -0 -0 -0 -7 -7 -7 -8 -8 -0 -0 -0 -0 -3
-0 -0 -0 -0 -0 -0 -0 -0 -0 -0 -0 -0 -0 -0 -0 -0 -0 -0 -0 -0 -0 -0 -0 -0 -0 -0 -0 -0 -0 -0 -0 -2 -10 -10 -11 -14 -4 -4 -0 -0 -0 -0 -0 -0 -0 -0 -0 -0 -0 -0 -0 nan nan nan -0 -0 -0 -0 -0 -0 -0 -0 -0 -0 -0 -0 -2 -4 -5 -5 -0 -0 -0 -0 -0 -2 -9 -9 -3 -3 -3 -0 -0 -1 -1 -4
-0 -0 -0 -0 -0 -0 -0 -0 -0 -0 -0 -0 -0 -0 -0 -0 -0 -0 -0 -0 -0 -0 -0 -0 -0 -0 -0 -0 -0 -0 -0 -7 -0 -0 -2 -9 -5 -5 -0 -0 -0 -0 -0 -0 -0 -0 -0 -0 -0 -0 -0 -0 -0 -0 -0 -0 -0 -0 -0 -0 -0 -0 -2 -0 -0 -0 -0 -0 -0 -0 -0 -0 -1 -1 -2 -0 -4 -4 -3 -0 -0 -0 -0 -0 -0 -2
-0 -0 -0 -0 -0 -0 -0 -0 -0 -0 -0 -0 -0 -0 -0 -0 -0 -0 -0 -0 -0 -0 -0 -0 -0 -0 -0 -0 -0 -0 -0 -1 -4 -4 -1 -0 -5 -5 -0 -0 -0 -0 -0 nan nan -0 -0 -0 -0 -0 -0 -0 -0 -0 -1 -0 -0 -0 -0 -0 -0 -0 -2 -0 -0 -0 -0 -0 -0 -0 -2 -0 -5 -5 -4 -3 -7 -7 -0 -0 -0 -0 -0 -2 -2 -5
-0 -0 -0 -0 -0 -0 -0 -0 -0 -0 -0 -0 -0 -0 -0 -0 -0 -0 -0 -0 -0 -0 -0 -0 -0 -0 -0 -0 -0 -0 -0 -0 -0 -0 -3 -0 -1 -1 -0 -0 -0 -0 -0 -0 -0 -0 -0 -0 -0 -0 -0 -0 -0 -0 -0 -0 -0 -0 -0 -0 -0 -0 -0 -0 -0 -0 -0 -0 -0 -0 -1 -4 -6 -6 -4 -3 -0 -0 -0 -0 -0 -1 -0 -3 -3 -5
-0 -0 -0 -0 -0 -0 -0 -0 -0 -0 -0 -0 -0 -0 -0 -0 -0 -0 -0 -0 -0 -0 -0 -0 -0 -0 -0 -0 -0 -0 -0 -0 -0 -0 -0 -0 -2 -2 -0 -0 -0 -0 -0 -0 -0 -0 -0 -0 -0 -0 -0 -0 -0 -0 -0 -0 -0 -0 -0 -0 -0 -0 -0 -0 -0 -0 -0 -0 -0 -0 -1 -4 -5 -5 -4 -4 -0 -0 -0 -1 -1 -7 -4 -3 -3 -4
-0 -0 -0 -0 -0 -0 -0 -0 -0 -0 -0 -0 -0 -0 -0 -0 -0 -0 -0 -0 -0 -0 -0 -0 -0 -0 -0 -0 -0 -0 -0 -0 -0 -0 -0 -0 -0 -0 -0 -0 -0 -0 -0 -0 -0 -1 -5 nan nan nan -0 -0 -0 -0 -0 -0 -0 -0 -0 -0 -0 -0 -0 -0 -0 -0 -1 -0 -3 -3 -6 -6 -4 -4 -3 -3 -0 -0 -0 -0 -0 -0 -2 -4 -4 -3
-0 -0 -0 -0 -0 -0 -0 -0 -0 -0 -0 -0 -0 -0 -0 -0 -0 -0 -0 -0 -0 -0 -0 -0 -0 -0 -1 -0 -0 -0 -0 -0 -0 -0 -0 -0 -0 -0 -0 -0 -0 -0 -0 -0 -0 -0 -0 -4 -4 -3 -0 -0 -0 -0 -0 -0 -0 -0 -0 -0 -0 -0 -0 -0 -0 -0 -5 -5 -8 -8 -7 -4 -3 -3 -2 -0 -0 -0 -0 -0 -0 -0 -2 -8 -8 -6
-0 -0 -0 -0 -0 -0 -0 -0 -0 -0 -0 -0 -0 -0 -0 -0 -0 -0 -0 -0 -0 -0 -0 -0 -0 -0 -0 -0 -0 -0 -0 -0 -0 -0 -0 -0 -0 -0 -0 -0 -0 -0 -0 -0 -0 -0 -0 -0 -0 -0 -0 -0 -0 -0 -0 -0 -0 -0 -0 -0 -0 -0 -0 -0 -0 -0 -0 -8 -12 -12 -6 -1 -3 -3 -2 -0 -0 -0 -0 -0 -0 -0 -0 -5 -5 -6
-0 -0 -0 -0 -0 -0 -0 -0 -0 -0 -0 -0 -0 -0 -0 -0 -0 -0 -0 -0 -0 -0 -0 -0 -0 -0 -0 -0 -0 -0 -0 -0 -0 -0 -0 -0 -0 -0 -0 -0 -0 -0 -0 -0 -0 -0 -0 -2 -2 -1 -0 -0 -0 -0 -0 -0 -0 -0 -0 -1 -1 -3 -3 -1 -1 -0 -0 -6 -12 -12 -4 -1 -2 -2 -1 -0 -0 -0 -0 -0 -0 -0 -0 -1 -1 -4
-0 -0 -0 -0 -0 -0 -0 -0 -0 -0 -0 -0 -0 -0 -0 -0 -0 -0 -0 -0 -0 -0 -0 -0 -0 -0 -0 -0 -0 -0 -0 -0 -0 -0 -0 -0 -0 -0 -0 -0 -0 -0 -0 -0 -0 -0 -0 -0 -0 -0 -0 -0 -0 -0 -0 -0 -0 -0 -0 -0 -0 -1 -3 -0 -0 -0 -0 -2 -6 -6 -5 -4 -2 -2 -2 -2 -0 -0 -0 -0 -0 -0 -0 -0 -0 -2
Wind_Speed
2 3 3 4 5 4 4 5 6 5 5 5 5 5 5 5 5 6 7 7 7 7 7 7 8 8 9 10 11 12 13 13 14 15 15 16 16 17 17 17 17 17 17 18 18 18 18 18 19 19 19 20 20 20 20 21 21 21 21 22 22 22 22 22 22 22 22 22 22 23 23 23 23 23 23 23 24 24 25 25 25 26 26 26 27 27
2 3 3 4 5 4 4 5 5 5 5 5 5 5 6 6 6 5 5 6 6 7 6 7 8 9 9 9 10 12 12 13 14 15 16 16 17 17 17 17 18 18 18 18 18 18 18 18 19 19 20 20 20 20 21 21 21 21 22 22 22 22 22 22 22 22 22 22 22 22 22 22 22 23 23 24 24 25 25 25 26 26 26 27 27 28
3 3 3 4 4 4 4 5 5 5 6 6 6 6 7 7 6 5 5 5 5 6 6 7 7 8 9 9 10 11 12 13 14 15 16 17 17 17 18 18 18 18 18 18 18 18 18 19 19 20 20 20 20 21 21 21 21 22 22 22 22 22 22 22 22 22 22 22 22 22 22 22 22 23 23 24 24 25 25 26 26 26 27 27 27 28
3 3 3 3 3 4 4 4 5 5 5 6 6 7 8 7 6 5 5 5 6 6 6 7 7 8 8 8 9 10 12 14 15 16 17 17 17 17 18 18 18 18 18 18 18 18 19 19 20 20 20 20 21 21 21 21 22 22 22 22 22 22 22 22 22 22 22 22 22 22 22 22 23 23 24 24 25 25 26 26 26 27 27 27 28 28
3 3 3 3 3 3 4 4 4 4 5 5 6 6 7 6 6 5 6 6 6 6 6 6 7 7 7 7 8 10 13 14 15 16 17 17 17 17 17 17 17 17 18 18 18 19 19 20 20 20 20 21 21 21 21 22 22 22 22 22 22 22 22 22 22 22 22 22 22 22 23 23 23 23 24 24 25 25 26 26 27 27 27 28 28 28
3 3 3 3 3 3 3 3 4 4 4 4 5 6 6 6 5 6 6 6 6 6 6 6 6 7 7 7 9 11 13 14 15 16 16 16 16 16 17 17 17 17 18 18 19 19 20 20 20 20 21 21 21 21 21 22 22 22 22 22 22 22 22 22 22 22 22 23 23 23 23 23 24 24 24 25 25 26 26 27 27 27 28 28 28 29
3 3 3 3 3 3 3 3 3 4 4 4 4 5 5 5 5 6 6 6 6 6 6 6 6 6 7 8 9 10 11 13 13 14 15 15 15 15 16 16 17 17 18 18 19 20 20 20 20 20 21 21 21 21 22 22 22 22 22 22 22 22 22 22 23 23 23 23 23 24 24 24 24 25 25 25 26 26 26 27 27 28 28 28 29 29
3 3 3 3 3 3 3 3 3 4 4 4 5 5 5 5 5 5 6 6 6 6 6 6 6 6 6 7 8 9 9 10 10 11 12 12 13 14 15 16 16 17 18 19 19 20 20 20 20 20 20 21 21 21 22 22 22 22 22 22 22 22 22 23 23 23 24 24 24 24 25 25 25 25 26 26 26 27 27 27 28 28 28 29 29 29
4 4 4 3 3 3 3 3 3 4 5 5 5 5 6 5 5 5 5 5 5 5 5 6 6 6 6 7 7 8 8 8 8 9 9 10 10 12 13 15 16 17 18 19 19 20 20 20 20 20 20 20 20 21 21 22 22 22 22 22 22 22 23 23 23 24 24 24 25 25 25 26 26 26 27 27 27 27 27 28 28 28 29 29 29 30
4 4 4 3 3 3 3 3 4 4 5 5 5 5 5 6 6 6 6 5 5 4 5 6 6 7 7 7 7 7 8 8 9 10 11 11 12 13 14 14 15 16 18 18 19 19 19 19 19 19 19 20 20 20 21 21 21 21 21 22 22 22 23 23 24 24 24 25 25 26 26 26 27 27 27 27 28 28 28 28 28 29 29 29 30 30
4 4 4 4 3 3 3 3 3 4 5 5 5 4 4 4 5 6 7 6 6 5 5 5 6 7 7 7 7 7 7 7 8 9 10 11 13 14 14 15 15 16 17 17 17 18 18 18 18 18 19 19 19 20 20 20 20 21 21 21 22 22 23 23 24 24 25 25 26 26 27 27 27 27 28 28 28 28 28 28 29 29 29 30 30 30
4 4 3 3 3 3 3 3 3 3 4 4 4 4 4 4 4 5 7 7 7 7 6 6 6 7 7 7 7 7 7 7 6 7 7 8 10 11 11 11 12 13 14 14 14 15 16 16 17 17 17 18 18 19 19 19 19 20 21 21 22 22 23 24 24 25 25 26 26 26 27 27 27 28 28 28 28 28 28 29 29 29 29 29 30 30
3 3 3 3 4 4 4 4 3 3 3 4 4 5 4 4 4 5 5 6 7 7 7 7 7 7 7 7 7 6 6 6 6 6 6 7 7 8 8 8 8 9 9 9 10 10 13 14 15 16 16 16 17 18 18 18 19 20 20 21 22 23 24 24 25 25 26 26 26 27 27 27 28 28 28 28 28 28 29 29 29 29 29 29 30 30
4 3 3 4 4 4 4 4 4 4 4 4 4 5 5 5 5 5 6 6 7 7 7 8 8 7 6 6 6 6 6 6 6 6 7 7 7 7 8 8 8 8 8 8 8 9 11 11 12 12 14 15 16 16 17 18 19 20 21 22 23 24 24 25 25 26 26 26 26 27 27 27 28 28 28 28 29 29 29 29 29 29 29 30 30 30
4 4 4 4 4 4 4 4 4 4 4 4 5 5 5 5 6 6 6 6 6 7 7 8 8 7 5 5 5 5 5 6 6 6 7 7 7 8 8 8 8 8 8 8 8 9 10 10 9 10 11 12 14 14 16 17 19 21 22 23 24 24 25 25 26 26 26 26 27 27 27 27 28 28 28 29 29 29 29 29 29 29 30 30 30 30
4 4 4 5 5 4 4 4 4 5 5 5 5 5 6 6 6 6 6 6 6 6 6 7 7 7 5 5 5 5 5 6 6 7 8 8 8 7 8 8 8 8 8 8 8 8 8 8 9 9 10 12 14 16 18 19 21 22 23 24 25 25 25 26 26 26 26 27 27 27 27 28 28 28 28 29 29 29 29 30 30 30 30 30 30 30
4 4 4 4 4 4 4 4 4 5 5 5 5 5 5 6 6 6 6 6 5 5 5 6 6 6 5 4 4 4 5 6 6 7 9 9 8 7 8 8 8 8 8 8 8 8 8 8 8 9 9 12 15 17 19 21 22 23 24 24 25 25 26 26 26 27 27 27 27 27 28 28 28 28 29 29 29 30 30 30 30 30 30 30 30 30
4 4 4 4 4 4 4 4 4 4 4 5 5 5 5 5 5 6 6 5 5 5 5 5 5 5 5 5 4 4 5 6 7 8 9 9 8 7 7 7 8 9 9 8 8 8 8 8 8 9 10 14 17 18 20 22 23 24 24 25 25 26 26 26 27 27 27 27 28 28 28 28 28 29 29 29 30 30 30 30 30 30 30 30 30 30
5 4 4 4 4 4 4 4 4 4 4 4 5 5 6 6 6 6 6 6 6 6 6 6 6 6 6 6 6 6 6 7 8 8 9 9 8 7 7 7 8 8 9 9 8 8 8 8 10 11 14 16 18 19 21 22 23 24 24 25 26 26 27 27 27 27 28 28 28 28 28 29 29 29 30 30 30 30 30 30 31 30 30 30 30 30
5 5 4 4 4 5 5 4 4 4 4 5 5 6 6 6 6 6 6 6 6 6 6 7 7 7 7 7 8 7 7 7 8 8 9 9 9 8 7 7 8 9 9 8 8 8 8 8 9 11 14 16 17 19 20 22 23 24 25 26 26 27 27 27 27 28 28 28 28 29 29 29 29 30 30 30 30 30 31 31 31 31 30 30 30 30
6 5 5 4 4 4 4 4 4 4 5 6 7 7 6 6 6 6 6 6 6 7 7 7 7 7 6 8 8 8 8 8 8 8 7 7 8 7 6 7 8 9 9 9 8 8 8 9 9 9 11 15 17 19 21 22 24 25 25 26 26 27 27 27 27 28 28 28 29 29 29 29 30 30 30 30 30 31 31 31 31 31 30 30 30 30
5 5 5 5 5 4 4 5 5 6 7 7 7 6 6 6 7 7 7 7 7 7 7 7 7 8 8 9 9 9 8 8 7 7 6 7 8 8 6 7 8 9 10 9 9 8 9 9 9 9 12 15 18 20 22 23 24 25 25 26 26 26 27 27 27 28 28 29 29 29 29 30 30 30 30 30 31 31 31 31 31 31 31 31 31 31
5 5 5 5 5 5 5 5 6 6 7 7 7 7 6 6 7 7 7 7 7 7 8 8 8 8 9 9 9 9 8 7 7 6 6 8 9 8 6 7 8 9 10 9 9 9 9 9 9 10 12 16 19 20 22 23 24 25 25 25 25 26 26 27 27 28 28 29 29 29 30 30 30 30 30 30 30 30 30 30 30 30 31 31 31 31
5 5 5 4 4 4 5 6 6 6 7 7 7 7 6 7 7 7 7 7 7 7 7 7 8 8 8 9 9 8 7 6 6 5 5 7 8 8 7 7 8 9 10 9 9 9 9 9 9 9 11 15 18 20 21 22 23 24 24 24 25 25 26 27 27 28 29 29 29 30 30 30 30 30 30 30 30 30 30 30 30 30 30 31 31 31
5 5 4 5 6 7 8 8 9 9 8 8 7 7 7 7 8 8 7 7 7 7 7 8 8 8 7 7 7 7 6 5 5 4 4 5 7 8 7 7 8 9 10 9 9 9 10 10 10 10 10 13 16 19 20 21 22 23 23 24 24 25 26 27 28 28 29 29 30 30 30 30 30 30 30 30 30 30 30 30 30 30 30 30 31 31
7 7 8 9 11 13 15 15 15 14 13 10 8 7 7 7 7 7 7 6 6 6 7 7 8 8 7 6 6 5 4 4 4 4 5 5 7 8 7 7 8 9 10 9 9 9 10 10 10 10 10 11 14 16 18 20 21 21 22 23 24 25 26 27 28 29 29 29 30 30 30 30 30 30 30 30 30 30 30 30 30 30 30 30 30 29
11 12 13 14 16 16 17 17 16 16 15 12 10 8 7 6 6 6 6 6 5 6 6 7 7 8 7 6 6 5 5 4 4 5 5 6 7 7 7 7 7 9 10 10 9 9 11 11 11 11 10 10 11 13 16 18 19 21 22 23 25 26 27 28 28 29 29 29 29 29 29 30 30 30 30 30 30 30 30 30 30 30 29 28 26 24
12 13 14 14 15 15 15 15 14 13 12 11 11 10 8 6 6 6 6 5 5 5 6 7 7 7 6 6 6 6 6 5 5 5 5 5 6 6 7 7 8 9 10 9 9 10 11 11 10 10 10 10 9 10 13 16 18 20 21 23 24 26 27 27 28 28 29 29 29 29 29 29 30 30 30 30 30 29 29 29 29 28 27 23 18 15
11 12 13 13 14 13 13 12 11 11 10 10 10 9 7 6 5 6 6 5 5 6 6 7 7 7 6 7 7 7 7 6 5 5 4 5 5 6 7 7 8 8 8 9 9 9 9 9 8 8 9 9 9 10 11 13 15 17 18 21 23 24 26 26 27 27 28 28 28 29 29 29 30 30 30 29 29 29 29 29 28 25 20 17 14 13
9 10 10 11 10 10 10 9 8 8 9 9 9 9 7 6 5 5 5 5 5 6 6 7 7 7 6 7 7 6 5 4 4 4 4 5 5 6 7 7 8 7 7 7 8 8 8 7 7 7 8 9 10 10 10 11 11 12 14 17 19 21 23 24 25 26 27 27 28 28 29 29 29 29 29 29 28 28 28 28 26 21 14 12 12 12
8 8 8 8 7 7 6 6 6 6 7 8 8 7 6 5 5 5 5 5 5 5 6 6 6 6 6 6 5 5 4 3 4 5 5 5 5 6 7 7 7 7 6 6 7 8 9 7 7 7 8 9 10 10 10 10 10 10 11 12 13 16 19 21 23 24 25 25 26 27 27 28 28 28 28 28 27 27 27 27 24 19 13 11 11 12
7 7 7 6 6 5 5 5 5 5 5 5 5 5 5 5 5 5 5 5 5 5 6 6 6 6 6 6 6 5 5 4 5 6 6 5 5 5 6 7 7 7 5 5 6 7 8 8 8 8 8 9 10 10 10 10 10 10 11 11 11 13 17 19 20 20 20 22 23 24 25 26 27 27 27 27 26 26 26 26 24 19 13 12 11 12
7 6 6 6 5 5 5 4 4 4 4 4 4 4 5 5 5 5 5 5 5 5 6 6 6 7 7 7 7 7 6 6 6 7 7 6 5 5 5 6 7 7 7 6 7 7 7 8 9 9 9 9 9 9 10 10 10 10 11 11 11 12 14 15 16 16 16 18 19 20 22 23 24 25 25 25 25 25 25 25 24 22 17 13 12 13
7 7 6 6 5 5 5 5 5 5 5 4 5 5 4 4 5 5 5 5 5 5 6 6 6 7 7 7 7 7 7 7 7 8 8 6 5 5 6 7 7 8 7 7 7 7 7 9 10 10 9 9 9 9 10 10 10 10 10 11 11 11 12 12 13 13 14 15 15 15 17 18 19 20 21 22 22 23 24 25 25 25 24 19 15 14
6 6 6 6 5 5 5 5 5 5 5 5 5 5 5 5 5 5 5 5 5 6 6 6 6 7 7 7 7 7 7 7 8 8 8 7 6 5 6 7 7 7 7 7 7 7 7 9 10 11 10 10 10 9 9 9 10 10 10 10 11 11 11 12 12 13 13 13 13 13 13 13 14 15 16 18 20 22 24 25 26 27 27 25 22 18
6 6 6 5 5 5 5 5 5 5 5 5 4 4 5 5 5 5 5 6 6 6 6 7 7 7 7 8 8 9 9 8 9 9 9 8 6 6 6 6 6 7 8 8 8 8 8 9 11 11 12 11 11 10 9 9 9 10 10 11 11 11 11 12 12 12 13 13 12 12 12 12 12 13 14 18 21 23 25 26 27 27 28 27 26 23
6 6 5 5 5 5 5 5 5 5 5 5 5 5 5 5 5 6 6 6 6 7 7 8 8 9 9 9 9 10 10 9 10 10 11 9 8 7 6 6 7 8 8 8 9 9 9 10 10 11 11 11 10 9 9 9 10 10 11 11 11 11 12 12 12 12 12 12 13 13 13 13 13 13 14 18 20 21 22 24 24 25 26 27 27 26
6 5 5 5 5 5 5 5 5 5 5 5 5 6 6 6 7 7 7 7 8 8 8 8 8 10 12 13 13 13 13 13 13 14 13 11 9 8 8 8 8 8 8 9 9 9 9 10 11 11 10 10 10 11 11 11 11 11 12 11 11 12 12 12 12 11 11 12 13 14 14 14 13 13 13 14 14 14 15 16 17 20 22 23 24 25
5 5 5 5 5 5 5 5 5 5 5 6 6 6 7 8 8 8 8 8 8 9 9 9 9 9 11 12 14 15 15 15 15 14 14 12 10 9 9 9 9 9 9 9 9 9 9 10 10 10 10 11 11 11 11 11 11 12 13 12 12 12 11 11 11 11 11 12 13 14 14 13 12 11 11 11 11 12 12 13 14 15 16 16 17 20
5 6 6 6 5 5 5 6 6 6 6 7 7 7 7 7 7 8 8 8 8 8 9 10 9 9 9 10 12 13 14 12 12 12 12 11 10 9 9 9 9 9 9 9 9 9 9 10 11 11 11 11 11 11 11 11 12 12 13 12 11 10 11 11 12 11 11 11 12 12 12 11 11 11 12 12 12 12 12 12 12 13 14 13 13 13
6 6 6 6 6 6 6 6 6 6 6 7 7 7 7 7 7 7 7 7 7 7 8 8 8 9 9 9 10 12 12 12 12 12 11 11 11 10 9 9 9 9 9 9 9 9 10 10 11 11 11 11 12 13 13 13 14 15 15 13 12 12 13 13 13 12 11 11 11 11 12 12 13 13 13 13 12 12 12 12 13 14 14 12 11 11
6 6 6 6 6 6 6 6 7 7 7 7 7 7 6 6 6 6 7 7 7 7 7 7 7 8 9 9 9 10 11 11 11 11 11 11 11 11 10 10 9 9 9 9 10 10 10 10 11 11 11 11 11 12 12 13 14 14 14 13 13 14 14 13 12 11 11 11 11 12 13 13 13 13 13 13 12 12 13 13 15 15 15 13 12 11
6 6 6 6 6 6 7 7 7 6 6 6 6 6 6 6 6 7 7 7 7 7 7 7 7 8 8 9 9 9 9 9 10 11 11 10 11 11 11 11 10 9 8 9 9 10 10 11 11 11 11 11 11 12 13 14 14 14 13 14 13 12 9 9 10 10 11 12 12 12 12 12 12 12 12 12 12 12 13 14 15 16 15 13 12 11
6 6 6 6 6 6 6 6 6 6 6 6 7 7 7 7 7 7 7 7 7 8 7 7 7 8 8 9 9 9 8 9 9 10 10 10 10 10 11 11 11 10 10 9 9 9 10 10 11 11 11 11 11 12 13 13 13 13 13 13 13 12 11 10 11 12 12 12 12 12 12 12 12 12 12 12 12 12 12 13 12 13 13 12 12 11
5 6 6 6 6 6 6 6 6 6 6 7 7 7 7 7 8 8 7 7 8 8 7 7 7 7 7 8 8 8 8 8 8 8 8 9 10 11 10 10 10 10 10 9 9 9 9 10 11 11 10 10 11 12 13 13 14 14 14 14 13 13 13 12 12 12 12 12 12 12 12 12 12 12 12 12 12 12 12 13 13 13 12 12 11 12
5 6 6 6 6 6 7 7 7 7 7 7 7 7 7 7 7 7 8 8 8 8 8 7 7 7 8 8 8 8 8 8 8 7 7 7 8 8 8 8 8 8 8 9 9 9 9 10 11 11 11 11 12 13 13 13 13 13 13 13 13 12 12 12 12 12 12 12 12 12 13 13 12 12 12 12 13 13 13 13 13 13 13 12 12 12
6 6 6 6 6 6 7 7 7 7 7 7 8 7 7 7 7 7 7 7 7 7 7 7 7 8 8 9 8 8 9 9 9 8 8 7 7 7 7 7 8 8 8 9 9 10 11 11 12 12 11 12 12 13 13 13 13 13 13 12 12 12 12 11 11 11 11 11 11 12 13 13 12 12 13 13 13 13 13 13 13 13 12 12 11 11
6 6 6 6 6 7 7 7 7 7 7 8 8 8 8 8 8 8 7 8 8 7 7 7 7 8 9 9 9 9 9 9 9 9 8 8 7 7 7 7 7 8 8 9 11 12 12 13 13 13 13 12 12 13 13 13 12 12 12 12 11 12 12 12 11 11 11 11 12 12 12 12 11 12 13 13 13 13 13 13 13 12 11 11 11 11
6 6 6 6 7 7 7 7 7 7 8 8 8 8 8 8 9 9 8 8 8 8 7 8 8 8 9 9 9 9 10 9 9 9 8 8 7 7 7 7 7 7 8 9 10 11 11 12 13 14 13 13 13 13 13 13 12 12 11 11 11 11 11 11 11 11 11 11 12 12 12 11 11 11 12 13 13 14 14 13 13 12 11 11 10 10
6 6 6 7 7 7 7 7 8 8 8 9 9 8 8 8 8 8 7 7 8 8 8 8 8 9 9 9 9 9 9 9 9 8 8 7 7 7 7 7 7 8 8 8 8 8 8 8 9 11 13 14 14 14 13 13 12 12 11 11 10 10 11 11 11 11 11 12 12 12 13 12 11 11 11 12 13 14 14 14 13 12 12 11 11 11
6 6 6 7 7 7 7 8 8 8 9 9 9 9 8 8 8 8 7 7 8 8 8 8 8 9 9 9 9 9 9 9 9 9 8 8 7 7 8 8 8 8 8 8 8 7 6 6 7 7 9 12 13 13 11 11 11 11 11 11 10 10 10 10 11 11 12 12 12 12 12 12 12 11 10 11 12 13 13 13 13 13 12 12 11 11
Wind_Direction
298 305 307 306 304 301 299 303 305 307 308 308 309 309 308 304 302 301 302 300 300 301 303 302 302 303 304 306 308 310 312 313 314 315 316 315 315 315 315 314 314 313 313 312 312 312 311 311 311 311 312 312 312 312 312 313 313 314 314 315 315 315 315 315 314 314 314 313 313 312 312 311 310 309 308 307 306 305 305 305 305 305 305 304 304 303
301 302 300 303 302 299 297 302 305 307 309 310 309 308 307 306 305 304 302 299 300 302 302 302 302 303 304 304 307 309 310 311 312 313 313 313 313 312 312 311 310 310 309 308 308 308 308 308 308 309 309 309 309 309 309 310 311 311 312 313 313 313 313 313 313 312 312 312 311 310 310 309 308 307 306 305 305 304 304 304 304 304 303 303 302 302
308 303 302 305 305 302 299 305 308 309 310 308 307 307 307 308 307 306 304 303 302 302 300 301 301 303 304 304 305 307 308 309 310 310 311 310 310 309 308 307 307 306 305 305 305 305 306 306 306 306 306 306 306 306 307 307 308 309 310 310 311 311 311 311 311 310 310 310 309 308 307 307 306 305 304 304 304 304 303 303 303 302 302 301 301 301
306 304 309 309 305 302 301 308 311 312 309 306 306 308 310 310 309 306 305 305 304 302 300 301 302 303 303 303 303 304 306 307 307 307 307 307 306 306 305 304 303 303 302 302 303 303 303 304 304 304 304 304 304 305 305 305 306 307 308 308 309 309 309 309 309 308 308 308 307 306 305 304 304 303 303 303 303 303 303 302 302 301 301 300 300 300
307 309 313 310 305 303 305 308 310 310 308 307 310 314 316 313 310 307 305 305 304 303 303 302 302 302 301 301 301 302 304 304 304 304 304 303 303 302 301 301 300 300 300 300 301 301 302 302 302 302 302 302 303 303 303 304 305 305 306 306 307 307 307 307 307 307 306 306 305 304 304 303 303 302 302 302 302 302 302 301 301 301 300 300 299 299
310 312 312 307 305 306 309 310 312 313 312 314 318 319 317 312 309 306 306 307 306 305 303 301 300 299 298 298 300 301 302 302 302 302 301 300 300 299 298 298 298 298 299 299 300 300 300 300 300 300 300 300 301 301 302 303 303 304 304 305 305 305 305 305 305 305 305 304 304 303 303 302 302 302 302 302 302 301 301 301 301 300 300 299 299 298
309 309 308 306 307 308 309 311 317 323 327 325 323 320 315 310 307 306 307 307 306 305 302 299 297 296 296 297 299 301 302 302 302 301 300 299 298 297 297 297 297 298 298 298 298 298 298 298 298 298 298 298 299 300 301 301 301 302 302 302 302 303 303 303 304 304 303 303 303 302 302 302 302 302 302 302 301 301 301 301 300 300 299 299 298 298
307 310 312 314 314 313 311 313 324 333 336 329 323 318 314 310 307 305 305 303 303 303 302 301 299 298 298 300 302 303 304 303 302 301 300 299 298 298 298 298 298 297 297 296 296 295 295 295 295 295 295 296 297 298 299 299 299 299 300 300 300 301 301 302 302 302 302 302 302 302 302 302 302 302 302 302 301 301 301 300 300 300 299 299 298 297
309 314 317 321 320 317 314 316 326 335 335 326 319 314 312 310 309 308 307 305 306 306 305 305 304 303 303 305 305 305 303 302 301 300 300 300 300 300 299 298 297 295 294 293 292 292 291 292 292 293 293 294 295 296 296 296 296 296 297 297 298 299 299 300 301 301 301 301 302 302 302 302 302 302 302 302 301 301 300 300 300 299 299 298 298 297
314 317 319 319 318 316 314 315 321 327 328 316 308 304 304 309 311 314 314 314 313 310 307 306 306 306 307 307 306 304 301 298 296 296 296 298 298 298 297 295 293 291 289 289 289 289 289 290 290 291 292 293 293 293 293 293 293 293 294 295 296 297 298 299 299 300 301 301 302 302 302 302 302 302 302 301 301 301 300 300 299 299 298 298 297 296
319 320 318 317 315 313 311 311 315 318 317 307 300 296 295 307 316 319 317 315 314 312 310 308 308 309 309 307 306 304 301 299 297 297 297 297 297 295 293 291 288 287 287 287 287 287 288 289 290 290 291 291 291 291 290 290 290 291 292 293 294 296 297 298 299 300 300 301 302 302 302 302 302 302 302 301 301 301 300 300 299 298 298 297 296 295
322 322 318 317 315 312 308 307 308 310 310 307 305 306 310 321 322 319 314 312 313 314 314 312 310 307 305 305 304 303 302 300 300 301 301 299 297 295 293 291 289 288 288 288 288 288 289 289 290 290 290 289 289 288 287 287 288 289 291 292 294 295 296 297 298 299 300 301 302 302 302 302 302 302 301 301 301 300 300 299 299 298 297 296 295 295
320 320 319 316 313 310 308 310 311 312 313 315 317 320 322 325 321 313 306 306 309 313 315 312 308 303 300 299 299 300 300 300 301 302 302 299 298 297 297 296 295 294 294 292 291 291 290 290 290 289 287 286 286 285 285 286 288 290 291 293 294 295 296 297 298 299 300 301 301 301 302 302 302 301 301 301 301 300 300 299 298 298 297 296 295 294
317 316 315 309 306 306 308 312 314 315 318 320 321 319 318 315 310 307 302 304 308 312 312 306 302 299 297 296 296 297 301 303 302 301 299 297 298 299 300 298 296 296 296 294 293 291 292 291 289 287 284 283 283 284 286 287 290 291 293 294 295 296 296 297 298 299 300 300 301 301 301 301 301 301 301 301 301 300 300 299 298 298 296 296 295 294
311 309 305 301 301 304 309 311 313 314 316 316 314 312 308 305 305 306 306 307 309 309 306 300 298 297 296 296 298 300 305 305 303 301 299 297 299 300 300 297 295 294 293 292 290 289 290 288 286 284 283 283 285 288 290 291 293 294 294 294 295 295 296 297 298 298 299 300 300 300 300 301 301 301 301 301 301 300 300 299 298 298 297 296 295 294
301 297 294 296 298 301 304 307 309 309 309 310 309 307 305 305 307 309 308 307 307 306 303 302 301 299 295 294 298 303 310 309 306 304 302 300 300 300 300 297 294 292 289 288 288 288 287 284 282 282 284 287 290 292 293 293 293 293 294 294 295 295 296 296 297 298 298 299 299 299 300 300 300 300 300 300 300 300 300 299 298 298 297 296 295 294
293 289 288 289 290 292 296 299 300 300 301 302 301 301 301 304 306 306 305 303 303 302 301 304 304 303 300 298 300 309 320 317 310 305 302 299 298 299 298 295 292 290 288 286 285 285 284 283 283 285 287 291 293 294 293 293 293 293 293 294 294 295 296 297 297 297 298 298 298 298 299 299 299 299 299 299 299 299 299 299 298 298 297 296 295 294
290 288 288 288 289 291 295 296 294 292 292 293 294 297 299 301 301 300 299 299 298 298 299 300 299 298 298 298 304 317 330 320 311 304 299 296 295 296 296 290 287 285 285 283 282 282 283 285 288 290 291 293 293 293 292 292 292 293 294 294 295 296 296 297 297 297 297 297 297 297 298 298 298 298 298 298 298 298 299 298 298 298 297 296 295 294
287 285 285 287 289 290 290 289 288 288 290 294 299 301 300 299 296 294 293 292 293 295 297 294 291 289 292 294 301 313 324 316 308 302 297 295 294 294 293 287 283 282 282 282 284 286 288 289 290 290 290 291 292 292 292 292 293 294 295 295 296 296 296 296 296 296 296 296 297 297 297 297 297 297 297 297 298 298 298 298 298 297 296 295 295 294
282 281 281 284 286 285 282 281 284 290 298 304 306 304 300 297 294 292 290 290 290 291 291 289 288 289 290 292 298 306 314 310 304 297 294 293 292 292 290 287 285 285 285 286 289 292 292 291 289 289 290 291 292 293 294 294 295 295 296 296 296 296 296 296 296 296 296 296 296 296 296 296 296 296 296 297 297 298 298 298 297 296 296 295 294 293
278 277 276 277 278 280 281 288 297 304 308 308 305 300 296 294 292 291 291 292 291 289 287 285 286 288 291 293 296 301 307 303 298 293 290 288 288 288 290 290 290 290 290 291 292 293 292 290 289 289 290 293 295 295 296 295 295 295 296 296 296 296 296 296 296 296 296 296 295 295 295 295 295 296 296 297 297 297 297 297 296 296 295 295 294 293
272 272 271 273 276 282 291 299 304 306 305 302 297 293 290 291 291 292 293 293 291 289 287 285 286 288 290 290 292 294 296 291 287 286 288 288 288 289 294 296 296 295 293 293 292 292 291 291 290 291 293 295 296 296 295 295 294 294 295 295 296 296 296 296 296 295 295 295 294 294 294 295 295 295 296 296 296 296 296 296 296 296 295 295 294 294
271 275 280 285 289 295 300 302 301 298 296 291 286 285 287 290 292 292 293 291 289 287 286 286 286 286 285 285 285 285 282 277 276 279 284 287 289 292 300 302 299 294 290 292 294 295 294 293 294 295 296 296 296 295 294 293 293 294 295 295 296 296 296 296 295 295 294 294 294 294 294 294 295 295 295 295 295 295 295 296 296 296 295 295 294 294
286 293 301 301 301 299 296 294 293 293 293 290 289 289 289 288 286 285 285 286 286 286 287 287 285 282 279 278 278 277 274 273 276 281 284 286 290 295 303 303 297 292 290 294 298 300 299 297 296 296 296 295 294 293 292 292 292 293 294 295 295 295 295 295 294 294 294 294 294 294 294 294 294 294 294 294 295 295 295 296 296 296 296 295 294 294
290 292 293 293 294 295 294 294 294 295 294 294 293 291 289 287 285 284 284 285 284 284 284 284 283 282 282 281 280 279 279 285 290 293 289 288 289 292 298 299 297 294 294 297 300 301 300 297 297 296 295 293 292 292 291 291 291 292 293 294 294 295 295 294 294 294 294 294 294 294 293 293 293 294 294 294 294 295 295 296 296 296 295 295 294 294
285 288 290 293 293 294 293 293 292 292 290 289 288 288 289 290 290 289 286 283 282 282 284 284 283 283 285 286 286 287 292 300 300 295 288 288 289 291 295 297 297 296 296 299 301 301 299 298 297 296 295 292 291 290 289 289 290 291 292 293 294 294 294 294 294 293 293 293 293 293 293 293 293 294 294 294 295 295 295 295 296 295 295 295 294 293
282 284 287 288 289 290 290 290 289 289 287 285 285 286 289 291 289 286 280 280 283 286 287 285 285 286 287 287 288 293 301 303 297 290 285 284 286 289 294 298 300 300 300 300 301 301 299 297 296 295 293 290 289 288 289 290 291 292 293 293 293 293 293 292 292 292 292 292 292 292 293 293 294 294 295 295 295 295 296 295 296 295 295 295 294 292
272 275 277 280 283 285 286 287 287 286 285 284 284 285 287 286 282 280 278 285 290 290 285 283 286 289 292 293 295 297 300 296 289 285 284 282 282 286 296 302 304 304 304 303 302 300 296 292 290 289 288 288 289 290 292 294 294 294 294 293 292 291 290 290 290 290 290 291 291 292 293 294 294 295 295 296 296 296 296 296 296 295 295 294 292 289
266 271 275 278 280 281 282 282 281 280 280 281 282 284 283 279 275 275 279 287 290 287 282 283 286 290 293 295 296 295 292 285 284 287 296 290 286 289 300 305 307 309 311 308 304 299 292 287 286 287 289 293 295 297 298 298 297 295 293 291 290 289 288 288 288 288 289 290 291 292 293 293 294 295 296 296 296 296 296 296 295 295 294 293 290 287
276 279 281 281 280 280 278 277 276 275 275 277 279 280 278 272 269 271 277 282 282 280 280 283 285 288 292 295 295 292 284 283 297 317 323 303 294 295 304 306 310 314 318 314 308 302 294 289 289 292 298 300 301 301 300 299 296 294 292 290 289 288 288 288 288 289 289 290 290 291 292 293 294 295 296 296 296 296 295 295 295 295 292 290 288 286
292 293 292 290 287 283 278 274 272 271 272 274 275 275 271 268 267 269 273 274 274 275 277 280 283 286 290 293 293 290 286 296 321 334 329 306 296 298 306 306 308 311 315 312 308 304 302 300 299 301 304 303 302 299 297 296 294 292 291 290 289 289 289 290 290 290 290 291 291 292 293 294 294 295 296 296 295 295 295 295 295 294 291 289 287 285
296 295 294 292 289 282 274 269 269 270 273 274 273 270 266 265 266 267 270 270 272 274 277 279 281 283 283 281 280 282 286 297 311 318 315 302 295 297 304 302 302 302 303 297 294 295 299 301 305 307 307 303 299 296 294 293 292 291 291 290 290 290 291 292 293 293 293 293 293 294 294 295 295 296 296 296 295 295 295 295 295 294 292 289 287 285
295 293 291 288 283 276 270 270 272 275 278 276 274 270 266 264 263 265 267 268 270 271 274 276 278 279 278 276 274 275 279 287 296 303 304 298 294 294 298 296 296 297 297 290 284 281 282 290 298 303 303 299 297 295 294 293 292 291 291 290 290 291 293 295 295 295 296 296 296 296 296 296 296 296 296 296 296 295 295 295 295 294 293 290 288 286
293 290 288 285 282 279 278 280 281 280 278 274 271 269 268 268 267 267 267 268 268 268 268 271 273 276 278 277 276 275 277 281 289 295 299 295 292 291 294 293 293 295 296 291 287 283 278 283 290 296 298 297 295 294 293 293 292 290 289 289 291 293 295 297 297 297 298 298 298 298 298 297 297 297 297 296 296 296 295 295 294 294 292 290 288 286
291 290 288 287 286 285 285 285 284 282 279 277 274 274 274 274 274 273 272 270 268 267 265 266 267 270 273 276 277 278 279 283 289 293 294 290 287 287 289 288 290 293 294 291 290 289 286 286 288 291 295 296 295 293 291 292 292 292 290 290 291 293 295 297 297 298 298 298 297 297 297 297 297 297 297 296 296 296 295 295 294 293 292 290 289 286
290 290 290 290 289 289 289 290 290 290 289 288 286 285 283 281 279 277 275 273 271 269 268 265 264 263 264 266 270 274 278 282 285 287 286 283 281 282 284 284 287 290 290 289 288 288 288 289 289 290 291 293 294 293 292 294 295 295 294 293 293 293 293 295 296 296 296 296 296 296 297 297 297 296 296 296 296 296 295 294 293 293 292 290 289 287
288 289 291 292 294 295 298 298 298 298 296 295 294 293 292 290 288 285 281 277 274 271 269 266 263 260 257 257 260 265 271 277 279 280 280 280 280 279 279 281 284 284 284 285 286 287 287 288 290 289 288 287 290 295 300 302 301 298 295 295 295 295 294 294 294 294 294 295 295 296 298 298 297 296 296 296 296 296 295 294 293 292 292 291 289 288
290 292 295 296 298 298 299 299 298 298 298 299 300 299 298 296 293 289 285 280 276 272 269 267 264 262 259 259 260 262 267 271 274 275 276 276 276 275 275 277 278 277 275 277 281 284 285 287 289 290 289 287 287 291 297 301 301 299 297 297 296 295 294 294 294 294 294 295 296 297 297 297 296 295 295 296 296 296 295 294 293 292 292 291 290 289
293 295 296 297 298 298 298 298 298 299 300 301 301 300 299 296 292 288 284 281 277 273 270 269 268 266 263 262 262 264 266 268 269 269 269 267 266 266 267 271 272 272 271 271 272 274 277 279 282 285 288 290 292 292 293 295 295 296 298 298 296 293 291 293 295 296 297 297 297 297 296 295 295 294 295 296 296 296 295 294 293 293 292 292 291 290
293 294 295 296 297 297 297 298 299 299 300 300 299 298 295 292 289 285 282 279 276 274 272 270 270 269 268 267 267 266 267 266 264 263 262 257 254 254 257 262 267 271 271 269 268 268 270 273 275 278 281 285 289 292 295 293 293 294 297 298 297 296 296 298 299 299 298 296 295 295 295 296 296 296 296 295 294 293 293 292 292 292 292 291 291 292
293 293 295 295 295 295 294 294 295 296 297 297 295 293 290 288 286 285 283 281 280 279 278 277 276 274 273 272 271 271 270 268 265 263 259 252 248 247 250 255 261 267 270 270 269 268 268 271 275 277 279 281 284 287 288 288 290 292 294 293 293 294 297 298 298 297 296 295 294 295 296 297 297 296 295 294 291 289 288 288 288 289 289 288 287 288
292 293 294 295 295 294 292 292 293 293 293 291 288 287 285 285 285 285 286 286 286 285 285 284 282 280 279 276 275 273 272 271 268 263 258 251 246 244 246 251 256 262 267 269 270 270 269 271 274 276 278 281 284 286 286 287 288 289 289 289 290 293 294 293 294 295 297 297 297 297 296 296 295 294 294 293 291 289 287 286 285 286 287 287 286 285
291 292 292 292 292 291 292 292 293 292 289 285 284 283 283 283 283 282 283 284 285 286 286 284 283 282 282 282 281 279 276 272 270 268 266 258 251 247 246 250 253 257 262 268 271 272 272 271 272 275 277 279 280 281 283 287 288 288 287 287 290 294 295 295 298 299 298 297 296 295 293 292 291 291 292 291 290 289 288 287 286 286 286 287 288 287
292 291 290 289 290 291 292 292 292 290 288 287 287 286 286 284 283 281 280 281 282 284 285 284 283 282 282 283 284 285 283 281 278 275 273 269 263 256 253 253 254 255 257 263 269 274 277 275 274 274 277 279 279 279 280 283 285 287 287 288 288 288 287 293 298 300 297 294 293 292 291 290 290 291 291 291 290 290 290 289 289 288 288 288 287 286
291 290 289 291 292 294 294 293 292 291 290 289 288 287 285 283 281 279 277 279 281 283 285 285 285 284 282 284 287 289 290 290 288 285 281 278 273 268 262 259 257 256 256 257 262 268 276 279 280 281 281 279 277 277 279 281 283 284 285 286 286 285 283 287 291 293 293 292 292 292 293 293 294 294 294 294 293 293 292 292 292 291 290 288 286 283
289 290 292 295 296 296 295 294 294 292 290 288 286 285 284 282 280 277 275 277 278 281 282 282 283 283 284 288 291 293 293 293 292 292 290 288 285 279 271 264 260 259 259 259 260 262 265 272 278 282 284 280 277 274 273 277 280 282 284 285 286 287 286 287 288 288 289 290 291 293 296 297 297 296 295 295 294 294 293 291 290 289 289 288 286 283
292 294 297 297 297 296 294 294 293 292 290 288 287 287 286 284 282 280 277 276 276 278 280 281 281 282 284 288 291 293 294 294 294 295 295 293 291 287 282 274 268 265 265 264 264 263 262 265 268 272 275 277 277 276 274 274 276 279 282 285 287 287 287 288 289 289 289 289 291 295 299 300 299 296 294 294 294 293 292 290 289 288 288 287 285 284
296 297 297 297 296 295 293 293 292 291 289 289 289 289 289 288 287 285 282 281 281 281 283 284 285 285 285 287 289 290 291 292 294 295 295 295 293 290 287 283 278 274 270 268 267 265 264 262 261 261 262 265 270 273 276 277 277 277 279 283 285 286 286 288 290 291 292 292 293 296 299 299 297 296 296 295 294 292 291 291 290 289 288 287 285 284
296 295 295 295 294 293 292 292 291 290 289 289 290 290 290 290 290 289 286 286 285 285 285 286 287 287 287 288 289 289 290 290 291 293 294 295 295 293 291 289 286 282 278 274 271 268 265 262 257 254 252 254 259 266 272 274 276 278 279 281 283 284 286 288 292 294 296 296 296 296 296 294 293 292 293 293 292 291 292 292 292 292 291 289 288 287
294 293 293 292 291 291 291 291 290 289 288 288 289 289 291 291 291 289 287 286 286 285 285 286 288 289 290 290 291 292 292 292 292 293 294 295 296 296 295 294 292 290 287 284 280 277 275 270 262 255 249 249 252 258 266 271 275 278 280 281 284 286 289 292 294 297 298 298 298 297 295 293 290 288 287 288 289 291 292 293 294 294 295 294 293 291
293 291 291 290 289 289 289 289 289 288 287 288 288 289 290 290 291 290 290 288 288 288 288 289 289 289 291 292 293 293 294 293 294 294 294 296 297 297 296 295 295 296 295 294 293 293 292 291 285 275 262 255 253 254 262 270 277 282 285 286 289 291 292 293 295 297 298 298 298 297 295 292 290 288 286 287 290 292 294 295 295 297 298 298 297 294